Regional Weather Roundup
Issued by NWS Green Bay, WI

Home | Current Version | Previous Version | Text Only | Print | Product List | Glossary On
Versions: 1 2 3 4 5 6 7 8 9 10 11 12 13 14 15 16 17 18 19 20 21 22 23 24 25 26 27 28 29 30 31 32 33 34 35 36 37 38 39 40 41 42 43 44 45 46 47 48 49 50
000
ASUS43 KGRB 231511
RWRGRB

NORTH-CENTRAL AND NORTHEAST WISCONSIN REGIONAL WEATHER ROUNDUP
NATIONAL WEATHER SERVICE GREEN BAY WI
1000 AM CDT SAT SEP 23 2017

WIZ005-009-010>012-018-019-231600-
NORTH CENTRAL WISCONSIN

CITY           SKY/WX    TMP DP  RH WIND       PRES   REMARKS
IRONWOOD       MOSUNNY   80  70  71 SW15G21   29.97R
MANITOWISH WTR NOT AVBL
ARBOR VITAE    SUNNY     77  68  74 SW9       30.04S
EAGLE RIVER    SUNNY     77  65  66 SW6       30.04S
LAND O LAKES   SUNNY     78  67  68 SW10      30.05S
RHINELANDER    SUNNY     77  68  73 S14G20    30.06S
PHILLIPS       SUNNY     76  69  77 SW13      30.02S
ANTIGO         SUNNY     77  67  71 SW8G16    30.08S
TOMAHAWK       SUNNY     77  67  69 S5        30.06S
MERRILL        SUNNY     79  68  69 SW10      30.06S
$$

WIZ013-073-231600-
NORTHEAST WISCONSIN

CITY           SKY/WX    TMP DP  RH WIND       PRES   REMARKS
IRON MOUNTAIN  SUNNY     81  67  62 SW5       30.04R
MARINETTE      CLOUDY    78  67  68 SW7       30.05R
OCONTO         SUNNY     81  68  64 SW6       30.05R
$$

WIZ017-030-035>037-045-231600-
CENTRAL WISCONSIN

CITY           SKY/WX    TMP DP  RH WIND       PRES   REMARKS
MEDFORD        SUNNY     77  67  70 S10G17    30.06R
WAUSAU         SUNNY     77  66  68 S8        30.05S
MOSINEE        SUNNY     79  68  69 SW9       30.08R
MARSHFIELD     SUNNY     79  66  64 SW12G18   30.06S
WISC RAPIDS    SUNNY     82  68  62 SW7       30.08R
STEVENS POINT  SUNNY     79  66  65 SW5       30.08S
WAUPACA        SUNNY     81  68  64 S7        30.08S
SHAWANO        SUNNY     80  67  64 SW6       30.06S
CLINTONVILLE   SUNNY     81  64  57 SW7       30.06S
WAUTOMA        SUNNY     78  67  68 S5        30.08
$$

WIZ038-039-048-051-231600-
FOX VALLEY

CITY           SKY/WX    TMP DP  RH WIND       PRES   REMARKS
NWS GREEN BAY  SUNNY     81  69  67 SW7       30.06S
APPLETON       MOSUNNY   81  63  54 SW8       30.07R
OSHKOSH        SUNNY     80  68  66 SW6       30.08R
FOND DU LAC    SUNNY     81  64  56 SW7       30.09R
$$

WIZ022-050-052-231600-
EAST CENTRAL WISCONSIN

CITY           SKY/WX    TMP DP  RH WIND       PRES   REMARKS
EPHRAIM        FAIR      78  65  64 SW5       30.05S
WASHINGTON ISL FAIR      77  66  68 SW9       30.05R
STURGEON BAY   SUNNY     83  67  58 SW10      30.07R
MANITOWOC      SUNNY     82  70  66 VRB3      30.09R
SHEBOYGAN      SUNNY     83  69  62 SW6       30.09R
$$

LMZ563-521-522-541>543-231600-
LAKESHORE

STATION/POSITION TIME  TEMP    WIND        PRES    VSBY  WAVE
                       AIR SEA DIR/SP/G                  HT/PER
                 (UTC) (F)     (DEG/KT/KT) (MB)    (MI)  (FT/S)
SHEBOYGAN LKSHOR 1500   72     170/ 16/ 16 1018.3R
KEWAUNEE LKSHORE 1442   65     170/  7/  8 1017.5R
NORTHPORT PIER   1440   81     210/  4/  9 1017.3R
N MID LAKE BUOY  1450   69 66  190/ 12/ 14 1018.0R         2/ 4
S GREEN BAY BUOY 1500   70 67  200/  4/  4 1017.7
SISTER BAY LKSHO 1419   82     230/  9/ 11   N/A
MENOMINEE LKSHOR 1442   77     220/  7/ 10 1017.1R
$$




USA.gov is the U.S. government's official web portal to all federal, state and local government web resources and services.